記事タイトル:Comet P/2003 CP7 (LINEAR-NEAT) 

最新の情報は「更新」や「再読み込み」ボタンを押してリロードしてご覧ください。

書き込み欄へ  ヘルプ
お名前: 15 pick keno    URL

You may find it interesting to check out some information about gambling chips gambling chips http://www.juris-net.com/gambling-chips.html
top online casinos top online casinos http://www.juris-net.com/top-online-casinos.html
online casino free money online casino free money http://www.juris-net.com/online-casino-free-money.html
free poker downloads free poker downloads http://www.juris-net.com/free-poker-downloads.html
aruba casino aruba casino http://www.juris-net.com/aruba-casino.html
coin slot protector coin slot protector http://www.juris-net.com/coin-slot-protector.html
wheel of fortune slots play for fun wheel of fortune slots play for fun http://www.juris-net.com/wheel-of-fortune-slots-play-for-fun.html
stop gambling stop gambling http://www.juris-net.com/stop-gambling.html
roulette secrets roulette secrets http://www.juris-net.com/roulette-secrets.html
black jack playfield black jack playfield http://www.juris-net.com/black-jack-playfield.html
slot machine cheats slot machine cheats http://www.juris-net.com/slot-machine-cheats.html
gambling in lousianna gambling in lousianna http://www.juris-net.com/gambling-in-lousianna.html
jennings buckaroo slot machine jennings buckaroo slot machine http://www.juris-net.com/jennings-buckaroo-slot-machine.html
black jack game download black jack game download http://www.juris-net.com/black-jack-game-download.html
slot games free slot games free http://www.juris-net.com/slot-games-free.html
code to count cards in blackjack code to count cards in blackjack http://www.juris-net.com/code-to-count-cards-in-blackjack.html
nevada gambling nevada gambling http://www.juris-net.com/nevada-gambling.html
research on gambling research on gambling http://www.juris-net.com/research-on-gambling.html
blackjack computer blackjack computer http://www.juris-net.com/blackjack-computer.html
free mit blackjack strategy free mit blackjack strategy http://www.juris-net.com/free-mit-blackjack-strategy.html
gambling history america gambling history america http://www.juris-net.com/gambling-history-america.html
roulette statistics roulette statistics http://www.juris-net.com/roulette-statistics.html
benefits of legalized gambling benefits of legalized gambling http://www.juris-net.com/benefits-of-legalized-gambling.html
java craps java craps http://www.juris-net.com/java-craps.html
port 1025 blackjack port 1025 blackjack http://www.juris-net.com/port-1025-blackjack.html
wong blackjack count analyzer wong blackjack count analyzer http://www.juris-net.com/wong-blackjack-count-analyzer.html
aida blackjack aida blackjack http://www.juris-net.com/aida-blackjack.html
craps table odds craps table odds http://www.juris-net.com/craps-table-odds.html
javascript roulette javascript roulette http://www.juris-net.com/javascript-roulette.html
les bon ton roulette les bon ton roulette http://www.juris-net.com/les-bon-ton-roulette.html
black jack cheating black jack cheating http://www.juris-net.com/black-jack-cheating.html
practice black jack games practice black jack games http://www.juris-net.com/practice-black-jack-games.html
family leslie keno family leslie keno http://www.juris-net.com/family-leslie-keno.html
freeware roulette game freeware roulette game http://www.juris-net.com/freeware-roulette-game.html
house fire keno oregon house fire keno oregon http://www.juris-net.com/house-fire-keno-oregon.html
... Thanks!!!

[2005年5月9日 16時7分48秒]

お名前: 佐藤 裕久   
3月10日に得られたPalomar Mountain/NEAT画像から彗星が発見された。NEO Confirmation 
Pageに公表され、K. Lawrence(1.2-m Schmidt + CCD)は、7″の核集光と、西に向かって
約8″の尾があると通報した。
3月12.4日UT、彗星であることは、Table Mountain天文台(0.6-m 反射 + CCD)のJ. Young
によって確認された。 
小惑星センターは、この天体を2003 CP7(MPS 73383-73384, 2月16日)と符号をつけた2月1日
と4日の19.0等の小惑星状LINEAR天体と連結した。  

発見位置と発見前の位置は次のとおり、

     2003 UT             R.A. (2000) Decl.        m1    Observer
     Feb.  1.39231   11 27 24.65   +11 10 53.4          LINEAR
     Mar. 10.35520   11 10 16.06   +15 50 08.0   17.7   NEAT

軌道要素と位置推算表は次のとおり、

Orbital elements:
    P/2003 CP7 (LINEAR-NEAT)
T 2003 Apr. 29.0579 TT                                  MPC
q   3.018060             (2000.0)            P               Q
n   0.1224034      Peri.   42.5367      -0.9857479      -0.0629044
a   4.017357       Node   133.1425      +0.0214290      -0.9668568
e   0.248745       Incl.   12.3472      +0.1668589      -0.2474490
P   8.05
From 44 observations 2003 Feb. 1-Mar. 12.

Ephemeris:
    P/2003 CP7 (LINEAR-NEAT)
Date    TT    R. A. (2000) Decl.     Delta      r     Elong.  Phase   m1    m2
2003 03 12    11 09.28   +16 01.5    2.052    3.027   166.8     4.3        18.8
2003 03 22    11 03.56   +17 02.8    2.081    3.024   157.2     7.3        19.0
2003 04 01    10 58.83   +17 47.8    2.136    3.021   146.7    10.5        19.2
2003 04 11    10 55.68   +18 14.5    2.213    3.019   136.4    13.2        19.4
2003 04 21    10 54.46   +18 22.8    2.309    3.018   126.6    15.5        19.6
2003 05 01    10 55.26   +18 13.9    2.419    3.018   117.4    17.2        19.7
2003 05 11    10 58.07   +17 49.8    2.540    3.019   108.7    18.5        19.9
2003 05 21    11 02.72   +17 12.4    2.668    3.020   100.5    19.2        20.0
2003 05 31    11 09.02   +16 23.9    2.800    3.022    92.7    19.6        20.1
2003 06 10    11 16.76   +15 25.8    2.933    3.025    85.4    19.5        20.2
2003 06 20    11 25.71   +14 19.9    3.065    3.029    78.4    19.2        20.3
2003 06 30    11 35.68   +13 07.4    3.195    3.033    71.7    18.6        20.4
2003 07 10    11 46.53   +11 49.5    3.321    3.039    65.2    17.7        20.4
2003 07 20    11 58.09   +10 27.4    3.441    3.045    59.0    16.6        20.5
2003 07 30    12 10.27   +09 02.0    3.555    3.052    52.9    15.4        20.5
2003 08 09    12 22.96   +07 34.2    3.660    3.059    47.0    14.0        20.5
2003 08 19    12 36.08   +06 05.0    3.757    3.068    41.1    12.5        20.6
2003 08 29    12 49.58   +04 35.3    3.844    3.077    35.4    11.0        20.6

(IAUC 8092、MPEC 2003-E47)
[2003年3月13日 22時36分30秒]

この記事への返信をどうぞ。
氏名
E-mail URL



記事一覧に戻る